sat.trackr.live / text

‹ back to catalog

STARLINK-30113

NORAD 56291 · 2023-056F

PAYLOAD ACTIVE UNKNOWN

§ Identity

Operator
Country
US
Launch date
2023-04-19
Launch site
AFETR
Launch vehicle
Mass (kg)
RCS (m²)

Purposes: comms

External: N2YO · Heavens-Above · Gunter

§ Orbital elements

Epoch: 2026-05-24T10:12:35.697888Z

Period
94.27 min
Inclination
43.0054°
Eccentricity
0.0001366
Mean motion
15.27578569 rev/d
Perigee alt
482.1 km
Apogee alt
484.0 km
Semi-major
6,861.2 km
B*
-5.3866e-5
RAAN
141.1284°
Arg perigee
293.3195°
Mean anomaly
66.7513°
Rev number
17,162

§ Raw data

STARLINK-301131 56291U 23056F   26144.42541317 -.00001744  00000+0 -53866-4 0  99922 56291  43.0054 141.1284 0001366 293.3195  66.7513 15.27578569171620

JSON: /api/v1/satellites/56291 · /tle

For live sub-satellite position, see the globe view (requires WebGL).

§ Visibility from observer

Set your observer location to see the next 7 days of passes ≥ 10°. The values pass through the URL so the page stays shareable.

No JS? Fill the form by hand. The geolocation button needs JavaScript.